Location: Albuquerque Trailhead
(34.7934°N, 106.3736°W)
Time: 22:46:35
(UTC+00:00)

Meteor 2-15 Rocket - Pass Details

Date: 20 June 2021
Orbit: 939 x 956 km, 82.5° (Epoch: 01 August)

Event Time Altitude Azimuth Distance (km) Brightness Sun altitude
Rises 09:10:38 0° 351° (N) 3,637 8.2 -24.8°
Reaches altitude 10° 09:13:09 10° 349° (N) 2,686 7.4 -24.5°
Maximum altitude 09:19:16 75° 266° (W) 986 4.3 -23.9°
Enters shadow 09:20:54 50° 196° (SSW) 1,188 4.5 -23.7°
